Location: Unspecified
(0.0000°N, 0.0000°E)
Time: 06:53:07
(UTC+00:00)

Hubble Space Telescope - Pass Details

Date: 18 April 2019
Orbit: 537 x 540 km, 28.5° (Epoch: 19 April)

Event Time Altitude Azimuth Distance (km) Brightness Sun altitude
Exits shadow 04:07:37 28° 26° (NNE) 1,012 2.4 -27.4°
Drops below altitude 10° 04:09:52 10° 44° (NE) 1,781 4.1 -26.9°
Sets 04:12:11 0° 50° (NE) 2,670 5.3 -26.3°
